Location: Balsareny
(41.8670°N, 1.8830°E)
Time: 01:10:06
(UTC+02:00)

X-37B - Pass Details

Date: 25 June 2021
Orbit: 383 x 392 km, 45.0° (Epoch: 01 July)

Event Time Altitude Azimuth Distance (km) Brightness Sun altitude
Rises 23:44:24 0° 269° (W) 2,253 4.9 -18.1°
Reaches altitude 10° 23:46:31 10° 275° (W) 1,400 3.9 -18.3°
Maximum altitude 23:49:35 49° 352° (N) 499 1.5 -18.6°
Enters shadow 23:51:45 17° 63° (ENE) 1,052 2.7 -18.8°
